Flag for Switzerland Weather past 2 weeks in Pratteln, Basel-Land, Switzerland

39 °F

Passing clouds.

Feels Like: 35 °F
Forecast: 32 / 46 °F
Wind: 6 mph from Southwest

Location: Bale-Mulhouse

Current Time: Nov 28, 2015 at 5:44:05 PM

Latest Report: Nov 28, 2015 at 5:00 PM

Visibility: N/A

Pressure: 30.18 "Hg

Humidity: 81%

Dew point: 34 °F

Location of PrattelnLocation

Historic Weather in Pratteln — Graph


Pratteln temperature yesterday

Maximum temperature yesterday: 36 °F (at 12:30 AM)
Minimum temperature yesterday: 32 °F (at 9:30 AM)
Average temperature yesterday: 34 °F

Past Weeks' High & Low Weather Summary

High66 °F (Nov 15, 2:30 PM)100% (Nov 16, 2:00 AM)30.51 "Hg (Nov 16, 2:00 AM)
Low23 °F (Nov 24, 5:30 AM)42% (Nov 16, 1:00 PM)29.45 "Hg (Nov 21, 12:30 PM)
Average45 °F81%30.05 "Hg
* Reported Nov 13 4:00 PM — Nov 28 4:30 PM, Pratteln, Weather by CustomWeather, © 2015

Note: Actual official high and low records may vary slightly from our data, if they occured in-between our weather recording intervals... More about our weather records


Pratteln weather history for previous 24 hours

Time TempWeatherWind HumidityBarometerVisibility
4:30 PM
Sat, Nov 28
41 °FPartly sunny.8 mph81%30.18 "HgN/A
4:00 PM39 °FPartly sunny.6 mph81%30.18 "HgN/A
3:30 PM41 °FScattered clouds.12 mph81%30.15 "HgN/A
3:00 PM43 °FPassing clouds.13 mph76%30.15 "HgN/A
2:30 PM43 °FPassing clouds.15 mph76%30.12 "HgN/A
2:00 PM43 °FScattered clouds.16 mph76%30.12 "HgN/A
1:30 PM43 °FScattered clouds.16 mph76%30.09 "HgN/A
1:00 PM43 °FScattered clouds.17 mph81%30.09 "HgN/A
12:30 PM43 °FScattered clouds.17 mph81%30.09 "HgN/A
12:00 PM41 °FBroken clouds.20 mph87%30.09 "HgN/A
11:30 AM41 °FBroken clouds.16 mph87%30.09 "HgN/A
11:00 AM39 °FBroken clouds.18 mph87%30.07 "HgN/A
10:30 AM37 °FBroken clouds.15 mph87%30.07 "HgN/A
10:00 AM36 °FFog.6 mph93%30.04 "Hg3 mi
9:30 AM34 °FFog.3 mph93%30.04 "Hg2 mi
9:00 AM34 °FFog.5 mph93%30.01 "Hg2 mi
8:30 AM32 °FIce fog.3 mph100%30.01 "Hg2 mi
8:00 AM34 °FLight snow. Fog.3 mph93%29.98 "Hg2 mi
7:30 AM34 °FLight snow. Fog.3 mph93%29.98 "Hg2 mi
7:00 AM34 °FPartly cloudy.5 mph93%29.95 "Hg4 mi
6:30 AM32 °FLight snow. Passing clouds.3 mph93%29.95 "Hg3 mi
5:30 AM32 °FPassing clouds.3 mph93%29.95 "Hg5 mi
5:00 AM32 °FPassing clouds.3 mph93%29.95 "Hg5 mi
4:30 AM30 °FPassing clouds.3 mph100%29.95 "Hg4 mi
4:00 AM30 °FPassing clouds.3 mph93%29.98 "Hg4 mi
3:30 AM30 °FLow clouds.2 mph93%29.98 "Hg5 mi
3:00 AM30 °FLow clouds.2 mph93%29.98 "Hg5 mi
2:30 AM30 °FClear.5 mph93%29.98 "Hg4 mi
2:00 AM28 °FPartly cloudy.1 mph100%29.98 "Hg4 mi
1:00 AM28 °FIce fog.2 mph100%29.98 "Hg1 mi
12:30 AM30 °FIce fog.2 mph93%29.98 "Hg1 mi
12:00 AM30 °FIce fog.3 mph100%29.98 "Hg0 mi
11:30 PM
Fri, Nov 27
32 °FIce fog.5 mph93%29.98 "Hg2 mi
11:00 PM32 °FIce fog.3 mph100%30.01 "Hg2 mi
10:30 PM32 °FIce fog.2 mph100%30.01 "Hg2 mi
10:00 PM32 °FIce fog.1 mph100%30.01 "Hg2 mi
9:30 PM32 °FIce fog.2 mph100%30.01 "Hg2 mi
9:00 PM32 °FIce fog.2 mph100%30.01 "Hg3 mi
8:30 PM34 °FMostly cloudy.2 mph93%30.01 "Hg4 mi
8:00 PM34 °FMostly cloudy.2 mph93%30.01 "Hg4 mi
7:30 PM34 °FMostly cloudy.3 mph93%30.04 "Hg4 mi
7:00 PM34 °FMostly cloudy.5 mph93%30.01 "Hg5 mi
6:30 PM34 °FMostly cloudy.5 mph93%30.01 "Hg5 mi
6:00 PM34 °FMostly cloudy.3 mph93%30.01 "Hg5 mi
5:30 PM34 °FMostly cloudy.3 mph93%30.01 "Hg5 mi
5:00 PM36 °FMostly cloudy.3 mph87%30.04 "Hg6 mi
Weather by CustomWeather, © 2015

See weather overviewHow to use our weather pages